Regional Weather Roundup
Issued by NWS

Home | Current Version | Previous Version | Text Only | Print | Product List | Glossary On
Versions: 1 2 3 4 5 6 7 8 9 10 11 12 13 14 15 16 17 18 19 20 21 22 23 24 25 26 27 28 29 30 31 32 33 34 35 36 37 38 39 40 41 42 43 44 45 46 47 48 49 50
000
ASUS44 KEWX 301703
RWRTX
SOUTH TEXAS REGIONAL WEATHER ROUNDUP
NATIONAL WEATHER SERVICE AUSTIN/SAN ANTONIO TX
1200 PM CDT SAT MAY 30 2015

NOTE: "FAIR" INDICATED FEW OR NO CLOUDS BELOW 12,000 FEET WITH NO
SIGNIFICANT WEATHER AND/OR OBSTRUCTIONS TO VISIBILITY.

* - THESE STATIONS ARE NOT NWS OR FAA STATIONS...AND ARE NOT SUBJECT
    TO NWS AND FAA QUALITY CONTROL.

TXZ171-172-183>190-301800-
TEXAS HILL COUNTRY AND EDWARDS PLATEAU

CITY           SKY/WX    TMP DP  RH WIND       PRES   REMARKS
JUNCTION       PTSUNNY   77  60  55 N8        30.14R
*LLANO         SUNNY     77  66  69 CALM      30.12S
BURNET         SUNNY     79  63  57 CALM      30.10S
*HORSESHOE BAY MOSUNNY   78  66  65 N5        30.09R
*KERRVILLE     SUNNY     79  67  67 CALM      30.11R
*FREDERICKSBRG SUNNY     78  63  60 CALM      30.10R
*ROCKSPRINGS   MOSUNNY  N/A N/A N/A CALM      30.15R
*BOERNE STAGE    N/A     79  68  69 CALM      30.08S
*CASTROVILLE   MOSUNNY   83  68  61 E7        30.05F
HONDO          MOSUNNY   84  71  65 VRB3      30.07S
*UVALDE        MOSUNNY   81  71  69 N5        30.08R
DEL RIO        HVY RAIN  65  63  93 MISG      30.15R VSB 1/2
LAUGHLIN AFB   TSTM      72  68  88 NW38G55   30.10R
CARRIZO SPRGS  PTSUNNY   81  72  74 SE7       30.00F
$$

TXZ173-191>194-202-209-217>225-228-301800-
CENTRAL AND SOUTH CENTRAL TEXAS

CITY           SKY/WX    TMP DP  RH WIND       PRES   REMARKS
GEORGETOWN     NOT AVBL
AUSTIN/BERGSTM MOSUNNY   83  69  62 CALM      30.04S
AUSTIN/MABRY   SUNNY     82  69  64 CALM      30.06R
*AUSTIN/EXEC   SUNNY     81  68  65 CALM      30.06S
*LAGO VISTA    SUNNY     81  65  59 CALM      30.09R
SAN MARCOS     MOSUNNY   84  70  61 S7        30.03F
NEW BRAUNFELS  MOSUNNY   85  72  65 VRB6      30.02F HX  91
RANDOLPH AFB   MOSUNNY   83  71  66 VRB5      30.04F
PT SAN ANTONIO PTSUNNY   83  70  65 VRB3      30.03F
SAN ANTONIO    PTSUNNY   82  70  66 CALM      30.05S
STINSON FIELD  MOSUNNY   83  71  67 SE7       30.02F
*PLEASANTON    SUNNY     84  71  65 E6        30.03F
*LA GRANGE     PTSUNNY   84  73  69 S5        30.00F HX  90
*GIDDINGS      PTSUNNY   84  67  57 S3        30.06R
*GONZALES      PTSUNNY   83  74  72 SW6       30.02F HX  90
$$

TXZ163>164-176>182-195>201-210>213-226-227-235-301800-
SOUTHEAST TEXAS

CITY           SKY/WX    TMP DP  RH WIND       PRES   REMARKS
COLLEGE STN    PTSUNNY   82  70  66 SE13      30.02R
*BRYAN         PTSUNNY   81  70  68 E9        30.03R
*CALDWELL      PTSUNNY   81  73  78 E5        30.06R
*CROCKETT      NOT AVBL
*BRENHAM       PTSUNNY   85  71  60 E7        30.02S HX  90
HUNTSVILLE     MOSUNNY   80  69  69 E6        30.03F
CONROE         PTSUNNY   83  68  60 CALM      30.03F
HOUSTON BUSH   PTSUNNY   86  72  62 VRB5      30.03F HX  92
HOUSTON HOBBY  PTSUNNY   88  72  58 CALM      30.03F HX  94
*HOUSTON SW AP MOSUNNY   83  71  67 CALM      30.04F
PEARLAND       MOSUNNY   87  70  56 CALM      30.05F HX  92
HOUSTON HOOKS  MOSUNNY   86  73  65 N5        30.03F HX  93
ELLINGTON FLD  NOT AVBL
SUGAR LAND     MOSUNNY   87  72  60 VRB3      30.03F HX  93
*HOUSTON EXEC  PTSUNNY   82  73  74 NE5       30.04F
*CLEVELAND MUN MOSUNNY   82  74  75 N5        30.06F
*WHARTON       PTSUNNY   83  73  72 N5        30.05F
*COLUMBUS      FAIR      83  73  72 SE5       30.01F
$$

TXZ214>216-236>238-301800-
THE UPPER TEXAS COAST

CITY           SKY/WX    TMP DP  RH WIND       PRES   REMARKS
*ORANGE        PTSUNNY   86  70  58 S6        30.05F HX  91
PORT ARTHUR    PTSUNNY   85  72  65 W9        30.04S HX  91
GALVESTON      MOSUNNY   84  76  76 S8        30.06S HX  93
ANGLETON       SUNNY     83  71  67 CALM      30.03F
*BAY CITY      MOSUNNY   85  74  69 CALM      30.04F HX  92
PALACIOS       PTSUNNY   78  71  79 SE5       30.03F THUNDER
$$

TXZ229>234-239>247-301800-
TEXAS COASTAL BEND AND RIO GRANDE PLAINS

CITY           SKY/WX    TMP DP  RH WIND       PRES   REMARKS
VICTORIA       MOSUNNY   86  74  67 CALM      30.03F HX  94
*BEEVILLE      MOSUNNY   85  74  70 E6        30.03F HX  92
ROCKPORT       PTSUNNY   86  73  65 SE8       30.02F HX  93
*PORT ARANSAS  SUNNY     84  75  73 E6        30.03F HX  91
*PORT LAVACA   SUNNY     86  72  63 E5        30.03F HX  92
*INGLESIDE     PTSUNNY   87  74  65 SE8       30.02F HX  94
CORPUS CHRISTI PTSUNNY   85  73  67 E6        30.02F HX  91
CORPUS NAS     PTSUNNY   84  74  71 E8        30.02F HX  91
*ROBSTOWN      PTSUNNY   86  74  66 E5        30.03S HAZE    HX  94
ALICE          PTSUNNY   88  73  61 E9        30.01F HX  95
KINGSVILLE NAS PTSUNNY   87  76  69 SE6       30.01F HX  97
COTULLA        PTSUNNY   84  71  65 SE10      30.02F
*FAITH RANCH     N/A     81  72  74 VRB6      30.02S
LAREDO         SUNNY     84  71  65 SE7       30.02F
$$

TXZ248>255-301800-
DEEP SOUTH TEXAS

CITY           SKY/WX    TMP DP  RH WIND       PRES   REMARKS
BROWNSVILLE    PTSUNNY   85  75  72 E10       30.01R HX  93
PORT ISABEL    MOSUNNY   85  76  74 E16       30.00S HX  94
*SOUTH PADRE   MOSUNNY  -24 -24 100 S13       30.02R WCI -48
HARLINGEN      MOSUNNY   89  76  65 SE13      29.99R HX 100
*HEBBRONVILLE    N/A     82  70  66 NE6       30.04F
MCALLEN        MOSUNNY   89  73  59 SE13      30.00R HX  97
*WESLACO       PTSUNNY   87  72  60 SE6       29.99S HX  93
FALFURRIAS     PTSUNNY   86  72  63 NE6       30.01S HX  92
EDINBURG       PTSUNNY   87  73  61 SE9       30.00S HX  94
*ZAPATA        MOSUNNY   84  69  60 SE5       30.01S
$$

TXZ213>215-236>238-242>244-246-247-251-254-255-301800-
CMAN STATIONS

STATION/POSITION TIME  TEMP    WIND        PRES    WAVE
                       AIR SEA DIR/SP/G            HT/PER
                 (UTC) (F)     (DEG/KT/KT) (MB)    (FT/S)
$$

GMZ080-GMZ150>470-301800-
OFFSHORE BUOY REPORTS

STATION/POSITION TIME  TEMP    WIND        PRES    WAVE
                       AIR SEA DIR/SP/G            HT/PER
                 (UTC) (F)     (DEG/KT/KT) (MB)    (FT/S)
$$



USA.gov is the U.S. government's official web portal to all federal, state and local government web resources and services.